Flag for Bulgaria Weather past 2 weeks in Plovdiv, Bulgaria

Now
86 °F

Passing clouds.


Feels Like: 87 °F
Forecast: 61 / 89 °F
Wind: 3 mph from North

Location: Plovdiv Airport

Current Time: Jul 26, 2014 at 2:27:57 PM

Latest Report: Jul 26, 2014 at 2:00 PM


Visibility: N/A

Pressure: 29.92 "Hg

Humidity: 49%

Dew point: 64 °F

Location of PlovdivLocation

Historic Weather in Plovdiv — Graph

°F

Plovdiv temperature yesterday

Maximum temperature yesterday: 86 °F (at 3:00 PM)
Minimum temperature yesterday: 66 °F (at 7:00 AM)
Average temperature yesterday: 76 °F

Past Weeks' High & Low Weather Summary

 TemperatureHumidityPressure
High90 °F (Jul 21, 4:00 PM)100% (Jul 14, 1:00 PM)30.01 "Hg (Jul 14, 1:00 PM)
Low59 °F (Jul 12, 4:00 AM)33% (Jul 13, 3:00 PM)29.56 "Hg (Jul 11, 5:00 PM)
Average73 °F72%29.88 "Hg
* Reported Jul 11 1:00 PM — Jul 26 1:00 PM, Plovdiv, Weather by CustomWeather, © 2014

Note: Actual official high and low records may vary slightly from our data, if they occured in-between our weather recording intervals... More about our weather records

Advertising

Plovdiv weather history for previous 24 hours

 ConditionsComfort  
Time TempWeatherWind HumidityBarometerVisibility
1:00 PM
Jul 26
84 °FPassing clouds.1 mph51%29.95 "HgN/A
12:00 PM82 °FSunny.1 mph58%29.95 "Hg10 mi
11:00 AM81 °FSunny.3 mph62%29.95 "Hg10 mi
10:00 AM77 °FSunny.1 mph69%29.95 "Hg10 mi
9:00 AM72 °FPassing clouds.6 mph83%29.95 "HgN/A
8:00 AM70 °FSunny.3 mph88%29.95 "Hg10 mi
7:00 AM64 °FPassing clouds.3 mph100%29.95 "Hg4 mi
6:00 AM66 °FClear.3 mph94%29.95 "Hg10 mi
5:00 AM66 °FClear.No wind88%29.95 "Hg10 mi
4:00 AM68 °FClear.3 mph83%29.92 "Hg10 mi
3:00 AM68 °FPassing clouds.No wind88%29.95 "HgN/A
2:00 AM68 °FPassing clouds.8 mph88%29.95 "HgN/A
1:00 AM72 °FClear.1 mph78%29.95 "Hg10 mi
12:00 AM73 °FPassing clouds.6 mph78%29.92 "HgN/A
11:00 PM
Jul 25
75 °FPassing clouds.8 mph74%29.92 "HgN/A
10:00 PM75 °FPassing clouds.10 mph78%29.92 "HgN/A
9:00 PM75 °FSprinkles. Scattered clouds.3 mph83%29.89 "HgN/A
8:00 PM79 °FScattered clouds.10 mph70%29.86 "HgN/A
7:00 PM84 °FPassing clouds.No wind55%29.86 "HgN/A
6:00 PM84 °FScattered clouds.3 mph51%29.86 "HgN/A
5:00 PM84 °FScattered clouds.8 mph51%29.86 "HgN/A
4:00 PM84 °FPassing clouds.3 mph48%29.86 "HgN/A
3:00 PM86 °FPassing clouds.1 mph52%29.86 "HgN/A
2:00 PM84 °FSunny.3 mph51%29.89 "Hg10 mi
Weather by CustomWeather, © 2014

See weather overviewHow to use our weather pages